When you browse on this site, cookies collect data to enhance your experience and personalize the content and advertising you see.
Visit our Privacy Policy to learn more. By continuing to use the site, you agree to this use of cookies and data.
  • In Deutschland
  • Länderverzeichnis
  • Für 7 Tage
  • Wassertemperatur
  • Satellitenkarten
  • Wetterkarte
  • Widgets
  • user-avatar
    Anmelden

    Stündliche Wetter Bremen

    Heute, 18 Dezember, Dienstag

    Zeit Temperatur Niederschläge Wind Luftdruck Luftfeuchtigkeit
    00:00 +3°C° 0 mm 4 m/S 765 mmHg 95%
    01:00 +3°C° 0 mm 4 m/S 766 mmHg 96%
    02:00 +3°C° 0 mm 4 m/S 766 mmHg 96%
    03:00 +3°C° 0 mm 4 m/S 766 mmHg 96%
    04:00 +3°C° 0 mm 4 m/S 766 mmHg 97%
    05:00 +3°C° 0 mm 3 m/S 766 mmHg 96%
    06:00 +3°C° 0 mm 3 m/S 766 mmHg 96%
    07:00 +5°C° 0 mm 2 m/S 766 mmHg 97%
    08:00 +4°C° 0 mm 3 m/S 766 mmHg 96%
    09:00 +4°C° 0 mm 3 m/S 766 mmHg 95%
    10:00 +4°C° 0 mm 3 m/S 766 mmHg 93%
    11:00 +4°C° 0 mm 3 m/S 766 mmHg 91%
    12:00 +5°C° 0 mm 3 m/S 766 mmHg 88%
    13:00 +7°C° 0 mm 3 m/S 765 mmHg 86%
    14:00 +5°C° 0 mm 3 m/S 765 mmHg 87%
    15:00 +4°C° 0 mm 3 m/S 765 mmHg 89%
    16:00 +4°C° 0 mm 4 m/S 764 mmHg 90%
    17:00 +3°C° 0 mm 4 m/S 764 mmHg 90%
    18:00 +3°C° 0 mm 4 m/S 764 mmHg 90%
    19:00 +1°C° 0 mm 4 m/S 763 mmHg 90%
    20:00 +1°C° 0 mm 5 m/S 763 mmHg 89%
    21:00 +1°C° 0 mm 5 m/S 762 mmHg 88%
    22:00 +1°C° 0 mm 5 m/S 762 mmHg 87%
    23:00 +1°C° 0 mm 5 m/S 761 mmHg 85%

    Morgen, 19 Dezember, Mittwoch

    Zeit Temperatur Niederschläge Wind Luftdruck Luftfeuchtigkeit
    00:00 +1°C° 0 mm 6 m/S 761 mmHg 83%
    01:00 +1°C° 0 mm 6 m/S 760 mmHg 81%
    02:00 +1°C° 0 mm 6 m/S 760 mmHg 79%
    03:00 +1°C° 0 mm 6 m/S 759 mmHg 76%
    04:00 +2°C° 0 mm 6 m/S 758 mmHg 73%
    05:00 +2°C° 0 mm 5 m/S 758 mmHg 73%
    06:00 +2°C° 0 mm 5 m/S 758 mmHg 73%
    07:00 +2°C° 0 mm 5 m/S 758 mmHg 72%
    08:00 +2°C° 0.2 mm 5 m/S 758 mmHg 75%
    09:00 +2°C° 0.2 mm 5 m/S 758 mmHg 77%
    10:00 +3°C° 0.2 mm 5 m/S 758 mmHg 80%
    11:00 +4°C° 0.1 mm 4 m/S 758 mmHg 81%
    12:00 +5°C° 0.1 mm 4 m/S 758 mmHg 83%
    13:00 +5°C° 0.1 mm 4 m/S 758 mmHg 84%
    14:00 +5°C° 0 mm 4 m/S 758 mmHg 86%
    15:00 +5°C° 0 mm 3 m/S 758 mmHg 89%
    16:00 +5°C° 0 mm 3 m/S 758 mmHg 91%
    17:00 +5°C° 0 mm 3 m/S 758 mmHg 90%
    18:00 +5°C° 0 mm 3 m/S 758 mmHg 90%
    19:00 +5°C° 0 mm 3 m/S 758 mmHg 90%
    20:00 +5°C° 0 mm 3 m/S 758 mmHg 90%
    21:00 +5°C° 0 mm 3 m/S 758 mmHg 90%
    22:00 +5°C° 0 mm 3 m/S 758 mmHg 89%
    23:00 +5°C° 0 mm 3 m/S 758 mmHg 90%

    übermorgen, 20 Dezember, Donnerstag

    Zeit Temperatur Niederschläge Wind Luftdruck Luftfeuchtigkeit
    00:00 +4°C° 0 mm 3 m/S 758 mmHg 91%
    01:00 +4°C° 0 mm 3 m/S 758 mmHg 92%
    02:00 +4°C° 0 mm 3 m/S 758 mmHg 93%
    03:00 +4°C° 0 mm 3 m/S 758 mmHg 94%
    04:00 +3°C° 0 mm 3 m/S 758 mmHg 94%
    05:00 +3°C° 0 mm 3 m/S 758 mmHg 94%
    06:00 +3°C° 0 mm 3 m/S 758 mmHg 94%
    07:00 +3°C° 0 mm 3 m/S 758 mmHg 94%
    08:00 +3°C° 0 mm 4 m/S 758 mmHg 93%
    09:00 +3°C° 0 mm 4 m/S 758 mmHg 92%
    10:00 +3°C° 0 mm 4 m/S 758 mmHg 91%
    11:00 +4°C° 0 mm 4 m/S 758 mmHg 88%
    12:00 +5°C° 0 mm 5 m/S 758 mmHg 84%
    13:00 +6°C° 0 mm 5 m/S 758 mmHg 81%
    14:00 +6°C° 0 mm 4 m/S 758 mmHg 83%
    15:00 +6°C° 0 mm 4 m/S 758 mmHg 85%
    16:00 +5°C° 0 mm 4 m/S 758 mmHg 86%
    17:00 +5°C° 0.2 mm 4 m/S 758 mmHg 87%
    18:00 +5°C° 0.2 mm 5 m/S 758 mmHg 88%
    19:00 +5°C° 0.2 mm 5 m/S 758 mmHg 89%
    20:00 +5°C° 0.5 mm 5 m/S 758 mmHg 89%
    21:00 +5°C° 0.5 mm 5 m/S 757 mmHg 89%
    22:00 +4°C° 0.5 mm 6 m/S 757 mmHg 88%
    23:00 +4°C° 0.3 mm 6 m/S 757 mmHg 88%

    21 Dezember, Freitag

    Zeit Temperatur Niederschläge Wind Luftdruck Luftfeuchtigkeit
    00:00 +6°C° 0.3 mm 5 m/S 757 mmHg 88%
    01:00 +6°C° 0.3 mm 5 m/S 757 mmHg 88%
    02:00 +6°C° 0.1 mm 5 m/S 757 mmHg 89%
    03:00 +5°C° 0.1 mm 5 m/S 757 mmHg 89%
    04:00 +5°C° 0.1 mm 5 m/S 756 mmHg 90%
    05:00 +5°C° 0 mm 4 m/S 756 mmHg 90%
    06:00 +5°C° 0 mm 4 m/S 756 mmHg 90%
    07:00 +5°C° 0 mm 4 m/S 755 mmHg 90%
    08:00 +5°C° 0.2 mm 5 m/S 754 mmHg 90%
    09:00 +5°C° 0.2 mm 5 m/S 753 mmHg 89%
    10:00 +5°C° 0.2 mm 5 m/S 752 mmHg 89%
    11:00 +5°C° 1.1 mm 6 m/S 751 mmHg 89%
    12:00 +5°C° 1.1 mm 6 m/S 750 mmHg 90%
    13:00 +5°C° 1.1 mm 7 m/S 748 mmHg 91%
    14:00 +8°C° 0.9 mm 7 m/S 748 mmHg 89%
    15:00 +9°C° 0.9 mm 8 m/S 748 mmHg 87%
    16:00 +10°C° 0.9 mm 8 m/S 747 mmHg 86%
    17:00 +9°C° 0.2 mm 8 m/S 748 mmHg 82%
    18:00 +7°C° 0.2 mm 9 m/S 749 mmHg 79%
    19:00 +7°C° 0.2 mm 9 m/S 750 mmHg 75%
    20:00 +6°C° 0.1 mm 8 m/S 750 mmHg 75%
    21:00 +6°C° 0.1 mm 8 m/S 751 mmHg 75%
    22:00 +6°C° 0.1 mm 8 m/S 752 mmHg 75%
    23:00 +6°C° 0.1 mm 8 m/S 752 mmHg 77%

    22 Dezember, Samstag

    Zeit Temperatur Niederschläge Wind Luftdruck Luftfeuchtigkeit
    00:00 +6°C° 0.1 mm 8 m/S 752 mmHg 78%
    01:00 +6°C° 0.1 mm 8 m/S 752 mmHg 80%
    02:00 +6°C° 0.1 mm 8 m/S 752 mmHg 81%
    03:00 +6°C° 0.1 mm 8 m/S 752 mmHg 82%
    04:00 +7°C° 0.1 mm 8 m/S 752 mmHg 83%
    05:00 +7°C° 0.4 mm 8 m/S 751 mmHg 83%
    06:00 +7°C° 0.4 mm 8 m/S 751 mmHg 84%
    07:00 +7°C° 0.4 mm 8 m/S 750 mmHg 84%
    08:00 +7°C° 0.5 mm 8 m/S 750 mmHg 85%
    09:00 +7°C° 0.5 mm 8 m/S 750 mmHg 85%
    10:00 +7°C° 0.5 mm 8 m/S 750 mmHg 85%
    11:00 +7°C° 0.3 mm 8 m/S 751 mmHg 83%
    12:00 +7°C° 0.3 mm 8 m/S 751 mmHg 81%
    13:00 +7°C° 0.3 mm 8 m/S 752 mmHg 79%
    14:00 +7°C° 0.1 mm 8 m/S 752 mmHg 79%
    15:00 +6°C° 0.1 mm 7 m/S 753 mmHg 80%
    16:00 +6°C° 0.1 mm 7 m/S 754 mmHg 80%
    17:00 +6°C° 0.1 mm 7 m/S 755 mmHg 82%
    18:00 +6°C° 0.1 mm 7 m/S 756 mmHg 83%
    19:00 +6°C° 0.1 mm 7 m/S 756 mmHg 84%
    20:00 +5°C° 0 mm 7 m/S 757 mmHg 84%
    21:00 +5°C° 0 mm 7 m/S 757 mmHg 84%
    22:00 +4°C° 0 mm 6 m/S 758 mmHg 84%
    23:00 +4°C° 0 mm 6 m/S 758 mmHg 85%

    23 Dezember, Sonntag

    Zeit Temperatur Niederschläge Wind Luftdruck Luftfeuchtigkeit
    00:00 +4°C° 0 mm 6 m/S 758 mmHg 85%
    01:00 +4°C° 0 mm 6 m/S 758 mmHg 85%
    02:00 +4°C° 0 mm 6 m/S 759 mmHg 84%
    03:00 +4°C° 0 mm 7 m/S 759 mmHg 83%
    04:00 +5°C° 0 mm 7 m/S 759 mmHg 82%
    05:00 +5°C° 0.1 mm 7 m/S 759 mmHg 83%
    06:00 +5°C° 0.1 mm 7 m/S 759 mmHg 84%
    07:00 +5°C° 0.1 mm 7 m/S 759 mmHg 84%
    08:00 +5°C° 0.1 mm 7 m/S 760 mmHg 84%
    09:00 +5°C° 0.1 mm 7 m/S 760 mmHg 84%
    10:00 +5°C° 0.1 mm 7 m/S 761 mmHg 84%
    11:00 +5°C° 0 mm 7 m/S 761 mmHg 82%
    12:00 +6°C° 0 mm 7 m/S 761 mmHg 80%
    13:00 +6°C° 0 mm 7 m/S 762 mmHg 78%
    14:00 +5°C° 0 mm 6 m/S 762 mmHg 80%
    15:00 +6°C° 0 mm 5 m/S 762 mmHg 82%
    16:00 +5°C° 0 mm 4 m/S 763 mmHg 85%
    17:00 +5°C° 0 mm 4 m/S 763 mmHg 87%
    18:00 +5°C° 0 mm 4 m/S 763 mmHg 90%
    19:00 +4°C° 0 mm 4 m/S 764 mmHg 93%
    20:00 +4°C° 0 mm 4 m/S 764 mmHg 93%
    21:00 +4°C° 0 mm 4 m/S 764 mmHg 94%
    22:00 +4°C° 0 mm 4 m/S 764 mmHg 94%
    23:00 +4°C° 0 mm 4 m/S 764 mmHg 95%
    Mehr zeigen